GSAT0216 (GALILEO 20)

Last updated on Tue Sep 16 2025 00:02:34 GMT+0000 (Coordinated Universal Time)

1 43056U 17079B 25258.19962299 .00000026 00000+0 00000+0 0 9997 2 43056 55.1650 229.0718 0004517 280.7911 79.1318 1.70473977 48316
UTC large
Height (km)
Speed (km/s)
/
Latitude / Longitude
Inclination (degrees)
Orbital Period (minutes)
Azimuth
Elevation
Range (km)
Doppler Factor

Next 0 passes for location: London (51.5072 / 0.1276)

Sorry there are no passes over London.